Showing default

LEMUR 2 ANDIS, 42838

Orbit data source: Space-Track

LEMUR 2 ANDIS, 42838 is a payload satellite owned by Spire (US) in SSO that was launched on Fri, 14 Jul 2017 UTC via a SOYUZ-2-1A launch vehicle from the Tyuratam Missile And Space Complex (TTMTR). Payload-class satellites include a variety of spacecraft equipped with specific instruments for various scientific and technological missions. These include communications satellites like Starlink; space stations such as the ISS; scientific satellites like the Hubble; Earth observation satellites from companies like Planet Labs, Umbra, and HawkEye 360; GPS; miniature CubeSats for education and research; and military/defense satellites.

Loading next visibility...
Identifier
42838, 2017-042P
Orbit
SSO
Country
Flag of USUS
Related business
Manufacturer
Spire/Glasgow
Mission
Operational Commercial Com/MetRO
Bus & Motor
CUBESAT 3U, Unknown motor
Mass
4 kg wet, 4 kg dry
Launch date (UTC)
2017-07-14 (9 years ago)
Launch vehicle
SOYUZ-2-1A
Launch site
Tyuratam Missile And Space Complex (TTMTR)
Object type
Payload
Rocket body
Debris
Shape & HBR
Box, 0.5 m
Radar Cross Section
0.093 m², Small (<0.1 m²)

Expand to show TLE details & history
Last TLE update: 9 hours ago

TLE from 9 hours ago
0 LEMUR 2 ANDIS
1 42838U 17042P   26034.47774655  .00023932  00000-0  85440-3 0  9992
2 42838  97.3626 216.0265 0010007 119.4303 240.7937 15.28808855467987
Epoch: 2026-02-03T11:27Z
TLE epoch observation values (Epoch: 2026-02-03T11:27:57.301Z)
Latitude
-0.00005°
Longitude
-89.62036°
Altitude
485.83 km
Speed
7.62 km/s
True Right ascension
14h 24m 06s
True Declination
0° 00' 00"
Sunlit
Object was in daylight at epoch
Visualization orbit readout
Latitude
Unknown
Longitude
Unknown
Altitude
Unknown
Speed
Unknown
Apparent Right ascension
Unknown
Apparent Declination
Unknown
Sunlit
N/A
Visualization observer readout
Local Sidereal Time
22:52:15
Azimuth
Unknown
Elevation
Unknown
Doppler factor
Unknown
Orbital elements
Apogee altitude
483.183 km
Perigee altitude
469.465 km
Semi-major axis
6,854.461 km
Eccentricity
0.001
Inclination
97.3626°
RAAN
216.0265°
Arg. of periapsis
119.4303°
True anomaly
240.69367°
Mean anomaly
240.7937°
Eccentric anomaly
240.74368°
Mean motion
3.82458 °/min
Orbital period
94.13 mins
BSTAR
0.0008544
Loading maneuver chart data...
Computing Atmospheric mass density...
Loading historical data...
Loading historical data...
Loading historical data...
Loading historical data...
Loading historical data...
Loading historical data...
Loading historical data...

Documentation

Showing up to 5 results
|